Powrót do katalogu

SL-8 R/B

AktywnyPO
NORAD 15598·ROCKET BODY·🇷🇺 Russia

Wystrzelony Mar 14, 1985 z Plesetsk Cosmodrome

Loading…

Następne Przeloty (najbliższe 24 godziny)

TLE

ŚwieżeSource: Space-Track

Epoka: Sep 14, 2026, 13:56 UTC

1 15598U 85022B   26257.58115122  .00000001  00000-0 -14069-4 0  9998
2 15598  82.9350 117.1027 0022746  28.2241   0.5346 13.76848086 84782

Śledź SL-8 R/B w czasie rzeczywistym z AllMySat

Download on the App Store